SCP
-0 -0 -0 -0 -0 -0 -0 -0 -0 -0 -0 -0 -0 -0 -0 -0 -0 -0 0 0 0 0 0 0 -0 -0 -0 0 0 0 1 0 0 -0 0 0 0 0 0 0 0 0 -0 -0 -0
-0 -0 -0 -0 -0 -0 -0 -0 -0 -0 -0 -0 -0 -0 -0 0 -0 0 -0 0 0 0 0 0 0 0 0 0 0 0 1 0 -0 0 0 0 0 0 0 0 -0 -0 -0 -0 -0
-0 -0 -0 -0 -0 -0 -0 -0 -0 -0 -0 -0 -0 0 0 0 0 0 0 0 0 0 0 0 0 0 -0 -0 -0 0 0 0 0 0 0 0 0 0 0 0 -0 -0 -0 -0 -0
-0 -0 -0 -0 -0 -0 -0 -0 -0 -0 -0 -0 -0 0 0 -0 0 -0 0 0 0 0 0 -0 -0 -0 -0 0 0 0 0 0 0 0 -0 0 0 0 0 0 -0 -0 -0 -0 -0
-0 -0 -0 -0 -0 -0 -0 -0 -0 -0 -0 -0 0 0 0 0 0 -0 0 0 0 0 0 -0 0 0 0 0 0 0 0 -0 0 0 0 -0 0 0 0 -0 -0 -0 -0 -0 -0
-0 -0 -0 -0 -0 -0 -0 -0 -0 -0 -0 -0 0 0 -0 0 0 -0 0 0 0 0 0 0 0 0 0 1 0 0 -0 -0 0 0 0 0 0 0 0 -0 0 -0 -0 -0 -0
-0 -0 -0 -0 -0 -0 -0 -0 -0 -0 -0 -0 0 -0 0 0 -0 0 0 0 0 0 0 0 -0 -0 0 0 0 -0 -0 0 0 0 0 0 0 0 -0 -0 -0 0 0 -0 -0
-0 -0 -0 -0 -0 -0 -0 -0 -0 -0 -0 0 -0 -0 0 0 -0 0 0 0 0 0 -0 0 0 0 0 0 0 -0 -0 0 0 0 0 0 0 0 -0 -0 -0 -0 -0 -0 0
-0 -0 -0 -0 -0 -0 -0 -0 -0 -0 -0 -0 -0 -0 0 0 0 0 0 0 0 0 0 0 0 0 0 0 0 0 0 0 0 0 0 0 0 0 0 -0 -0 -0 -0 -0 -0
-0 -0 -0 -0 -0 -0 -0 -0 0 0 -0 -0 -0 0 0 0 0 0 0 0 0 0 0 0 0 0 -0 0 0 0 0 0 -0 0 0 0 0 -0 0 -0 -0 -0 -0 -0 -0
-0 -0 -0 -0 -0 -0 -0 0 0 -0 -0 -0 0 0 0 -0 0 -0 -0 0 0 0 0 0 0 0 -0 -0 -0 -0 0 -0 0 0 0 -0 -0 0 0 0 -0 -0 -0 -0 -0
-0 -0 -0 -0 -0 -0 0 0 0 0 -0 0 -0 -0 -0 0 -0 0 -0 0 0 0 0 0 0 -0 -0 -0 -0 -0 -0 -0 0 0 0 0 -0 -0 0 0 0 0 0 -0 -0
-0 -0 -0 -0 -0 0 0 -0 -0 0 -0 -0 0 -0 0 0 0 0 -0 0 0 0 0 0 0 -0 -0 0 -0 0 -0 0 0 0 -0 -0 0 0 0 0 -0 0 0 -0 -0
-0 -0 -0 -0 0 0 0 -0 -0 0 0 0 -0 -0 0 -0 0 0 -0 -0 -0 -0 -0 0 0 -0 0 0 0 -0 0 0 0 0 0 -0 0 0 0 0 0 0 0 0 0
-0 -0 -0 0 0 0 0 -0 0 0 0 -0 0 -0 0 -0 0 0 0 0 0 0 0 0 -0 0 0 -0 0 0 0 0 0 0 0 -0 0 0 0 0 -0 -0 -0 0 1
0 0 -0 -0 -0 0 0 -0 0 0 0 0 0 0 0 0 -0 -0 0 0 0 0 -0 -0 -0 -0 0 0 0 0 0 0 0 0 0 -0 0 0 0 -0 0 -0 0 0 1
0 0 0 0 0 0 0 0 0 0 -0 0 0 -0 0 0 -0 0 0 0 0 0 -0 -0 -0 -0 -0 -0 0 0 0 0 0 0 0 0 0 0 0 0 0 0 0 0 0
0 0 0 0 -0 0 0 0 0 0 0 -0 0 0 0 -0 -0 -0 0 -0 0 0 0 0 0 0 -0 0 0 0 0 0 0 0 -0 -0 -0 0 0 0 0 0 0 0 0
0 -0 0 0 0 0 0 0 0 0 0 0 0 0 0 0 0 0 0 0 0 0 0 0 0 -0 0 -0 0 0 0 0 0 0 0 0 0 0 0 0 0 0 0 0 0
0 0 0 0 0 0 0 0 0 0 0 0 0 0 0 0 0 0 0 0 0 0 0 0 0 0 0 0 -0 0 0 0 0 0 0 0 0 0 0 0 0 0 0 0 1
0 0 0 0 -0 0 0 0 -0 0 0 0 0 0 0 0 0 0 0 0 0 0 0 0 0 0 0 0 0 0 0 0 0 0 0 0 0 0 0 0 0 0 1 1 0
0 0 0 0 0 0 0 0 0 0 0 0 0 0 0 0 0 0 0 0 0 0 0 0 0 0 0 0 0 0 0 0 0 0 0 0 0 0 0 0 0 0 0 0 1
0 0 0 0 0 0 0 0 0 0 0 0 0 0 0 0 0 0 0 0 0 0 0 0 0 0 0 0 0 0 0 0 0 0 0 0 0 0 0 0 0 1 1 1 2
0 0 0 0 0 0 0 0 0 0 0 0 0 0 0 0 0 0 0 0 0 -0 0 0 0 0 0 0 -0 0 0 0 0 0 0 0 -0 -0 0 0 0 1 2 3 3
0 0 0 0 0 0 0 0 0 0 0 0 0 0 0 0 0 0 0 0 0 0 0 0 0 0 0 0 -0 0 0 0 0 0 0 0 0 -0 0 -0 -0 1 1 0 0
0 0 0 0 0 0 0 0 0 0 0 0 0 0 0 0 0 0 0 0 0 0 0 0 0 0 0 0 0 0 0 0 -0 0 0 0 0 0 0 0 0 1 0 0 0
0 0 0 0 0 0 0 0 0 0 0 0 0 0 0 0 0 0 0 0 0 0 0 0 0 0 0 0 0 0 0 -0 -0 -0 0 0 0 0 0 0 0 0 1 1 0
Wind_Speed_500mb
14 15 15 15 16 16 16 16 16 17 18 18 18 19 21 23 21 22 18 9 16 14 4 6 5 9 16 12 11 27 5 16 18 6 14 44 26 32 37 32 21 18 63 71 67
14 14 15 16 17 16 16 16 17 17 18 18 19 21 23 24 20 19 13 13 17 12 13 2 23 21 11 3 14 10 9 18 17 7 26 39 41 44 34 40 43 63 66 74 71
15 16 16 17 18 18 17 17 17 17 18 18 19 21 21 23 21 9 14 9 12 17 6 14 19 21 44 42 7 5 12 9 6 35 37 24 30 36 49 22 59 73 75 72 72
16 17 18 18 19 19 18 18 17 17 18 18 20 20 25 20 8 1 9 13 21 22 8 20 27 28 7 17 13 8 34 42 9 4 29 15 27 29 45 41 62 72 70 70 68
19 19 19 20 20 19 19 19 18 17 18 17 19 20 25 14 12 11 15 18 26 19 14 15 17 27 11 23 27 34 47 60 25 9 23 14 10 9 53 55 55 59 62 65 65
21 21 21 21 21 21 20 20 19 18 19 17 18 21 18 11 4 14 11 8 16 13 11 35 23 40 34 32 37 41 85 34 35 26 28 24 13 18 54 58 55 55 58 61 62
22 22 22 22 22 22 22 21 20 19 19 18 18 23 22 25 17 15 26 18 14 11 19 15 8 34 29 29 41 71 14 6 12 32 12 32 10 7 66 62 60 56 53 55 59
23 23 23 23 23 23 23 22 20 19 19 18 17 23 21 9 9 16 15 19 22 21 25 31 20 30 30 37 25 10 9 10 18 13 33 30 9 17 71 70 64 62 61 57 56
26 25 24 24 24 23 22 21 20 19 18 17 12 12 23 14 27 27 28 21 27 27 29 31 27 29 29 9 10 5 7 10 9 16 11 15 11 20 61 70 62 66 66 65 60
25 25 25 24 24 23 20 19 17 18 18 19 20 17 30 30 27 24 30 23 28 28 32 34 32 10 7 7 9 12 7 12 9 11 9 8 11 30 56 65 65 68 70 68 66
25 24 23 23 24 22 16 16 12 10 22 26 21 37 27 11 32 26 28 26 25 31 16 39 10 11 17 20 29 37 10 11 15 12 6 14 13 21 48 46 58 65 70 76 71
26 24 22 20 20 20 17 10 19 23 23 41 50 58 62 33 14 21 26 26 23 16 26 17 17 22 20 24 19 23 20 18 11 13 9 15 18 21 27 29 63 68 71 74 74
29 26 22 18 15 9 14 18 18 19 17 34 50 55 57 27 26 36 36 34 23 17 26 17 28 26 21 15 14 15 15 10 6 15 14 14 20 3 21 15 77 41 80 83 88
31 27 23 14 9 9 16 19 13 20 7 14 24 48 53 32 36 44 38 33 17 24 29 20 28 29 21 15 8 14 21 15 14 13 8 9 19 4 1 39 33 55 38 79 84
32 27 22 16 12 7 12 3 19 10 7 17 23 16 46 48 10 34 36 41 21 24 15 22 24 24 20 16 12 14 26 14 14 15 16 21 6 3 4 7 22 34 65 73 93
32 28 21 22 23 12 18 16 18 3 13 9 14 13 17 45 49 53 37 38 27 22 29 27 50 21 17 17 11 11 15 14 13 7 11 35 15 8 5 17 18 47 54 61 84
33 30 24 25 16 7 5 13 1 8 4 15 14 20 16 16 23 18 16 20 13 7 14 21 27 27 37 18 12 11 14 10 10 8 14 12 6 13 32 28 19 9 43 39 73
32 34 28 25 28 18 4 4 10 20 22 15 20 25 21 25 26 30 24 19 19 21 15 13 18 27 27 22 22 17 17 10 14 8 16 17 10 13 17 41 36 35 44 35 23
31 30 24 14 30 22 7 8 12 14 28 19 5 9 18 22 22 26 27 23 18 24 22 13 25 34 33 22 32 22 11 21 8 11 10 11 21 12 5 14 16 30 35 35 25
34 25 31 5 19 27 5 11 14 22 36 18 12 11 13 15 17 21 23 29 33 31 22 18 19 22 34 20 17 18 11 3 8 9 14 13 16 13 11 8 10 12 23 29 23
26 10 19 38 19 15 8 13 17 40 46 9 15 19 24 21 15 12 19 20 23 36 35 21 12 18 12 12 15 13 6 5 12 10 10 7 13 12 23 20 20 14 38 39 25
10 7 31 32 15 12 13 12 18 44 61 18 3 14 19 18 15 16 18 12 45 21 7 5 7 12 23 18 14 16 18 14 10 15 10 8 12 23 28 10 14 12 39 24 19
20 15 23 34 8 15 25 34 49 38 34 22 10 9 15 15 14 13 20 34 42 12 5 13 8 9 21 15 14 9 10 7 11 8 9 6 7 31 40 38 59 14 34 23 17
10 7 19 35 39 21 18 19 26 51 39 23 13 21 18 14 14 11 17 23 47 27 4 7 4 8 11 18 13 17 21 14 5 4 2 9 2 16 24 31 49 68 55 62 56
7 7 18 5 12 20 21 21 33 27 29 15 4 10 17 15 16 16 18 19 36 37 7 8 10 13 18 22 33 23 27 20 11 13 13 10 8 9 11 21 30 49 57 57 43
15 15 24 32 37 26 18 17 30 31 19 13 15 17 19 11 8 10 13 11 10 20 16 9 13 16 14 20 27 36 23 22 19 16 8 7 6 4 19 34 37 30 25 19 12
20 24 17 25 21 17 13 18 22 20 31 31 13 8 7 15 27 33 39 41 21 11 15 11 6 7 6 15 18 12 16 10 19 11 5 2 3 3 6 15 22 10 11 19 36
Wind_Direction_500mb
340 333 328 327 326 326 327 327 328 331 330 331 333 329 317 308 293 271 253 288 289 279 292 181 317 327 261 239 141 112 144 277 263 76 125 106 110 122 142 116 134 174 151 153 152
334 328 324 324 324 322 322 323 324 326 327 329 332 323 323 323 313 263 225 261 271 234 172 102 331 283 278 97 115 144 202 217 233 168 132 139 144 156 128 110 88 122 139 150 156
333 327 323 322 319 318 321 319 320 320 321 327 328 325 328 325 313 259 232 267 183 158 172 351 333 6 32 330 41 240 224 292 6 124 122 121 159 165 129 132 132 136 145 154 162
331 326 323 319 318 317 317 315 314 313 315 322 322 329 323 323 16 6 151 149 147 148 135 40 65 68 87 259 144 290 274 263 129 45 115 35 101 112 118 143 144 147 152 160 167
331 328 323 319 317 312 310 306 305 305 305 314 319 323 331 327 271 155 133 146 160 175 145 112 31 90 191 232 279 266 264 263 140 132 111 48 334 349 115 132 142 151 156 167 174
331 326 322 318 312 308 304 300 301 297 298 306 313 317 325 277 219 165 144 165 206 250 205 200 242 169 251 239 209 224 234 231 164 167 138 146 249 113 129 132 140 155 163 175 182
328 325 322 318 312 306 300 297 296 292 292 297 306 312 294 254 239 247 247 277 233 233 285 241 320 162 245 261 242 246 303 338 216 172 142 148 331 167 140 141 148 161 173 182 188
327 325 322 319 313 306 301 295 289 283 283 290 304 312 277 295 203 257 240 229 266 276 272 282 282 291 270 271 323 317 217 187 244 182 155 162 212 154 152 150 158 169 176 187 194
326 323 322 320 313 306 302 294 286 276 276 278 292 314 273 224 215 224 240 230 240 259 265 273 279 267 294 47 353 278 261 279 184 175 169 183 173 182 166 159 167 173 181 186 192
322 318 318 318 314 308 302 294 281 273 266 272 251 294 250 232 231 210 220 229 256 273 265 254 255 217 343 102 241 251 214 267 227 210 195 238 223 182 189 169 175 175 181 187 192
322 315 312 312 313 310 298 294 324 271 236 218 229 217 286 213 250 204 208 220 246 272 275 279 239 221 221 220 247 271 263 263 168 137 154 276 300 221 195 189 175 179 180 187 194
329 316 306 304 307 307 294 259 350 328 299 279 261 254 268 261 194 219 212 210 230 245 262 275 251 247 212 217 251 284 300 303 253 154 143 256 252 256 171 198 183 184 184 186 188
332 323 308 298 299 302 312 273 338 331 291 279 246 245 244 232 229 227 203 214 237 252 256 256 267 285 188 243 297 270 262 300 0 333 335 325 318 290 97 124 281 195 190 185 187
333 327 312 293 288 266 294 3 333 305 297 261 206 234 235 233 244 242 218 200 220 246 271 269 282 296 266 240 214 282 295 339 353 23 298 341 300 4 294 181 254 249 203 185 187
329 325 314 280 253 238 348 18 318 296 296 162 180 208 202 218 88 208 230 202 225 252 248 265 277 291 293 275 311 287 302 7 353 340 321 290 296 226 56 277 267 248 236 199 189
322 317 305 279 251 242 329 340 312 301 245 148 135 168 177 211 236 260 219 229 226 239 273 276 293 296 286 322 335 306 310 358 323 280 294 273 230 243 78 232 232 244 187 194 182
314 304 286 261 241 219 264 312 290 232 275 150 171 165 197 216 224 241 249 215 199 247 273 281 270 275 277 298 283 297 348 333 324 317 242 280 60 217 205 230 217 207 133 124 178
310 296 279 255 218 207 359 311 250 276 268 188 156 164 176 203 212 210 233 244 205 216 260 254 277 250 247 222 221 213 190 180 262 279 291 307 263 265 200 211 222 161 131 136 151
315 298 273 242 208 192 216 214 222 218 355 0 144 209 208 203 201 192 204 228 226 209 219 237 273 286 287 296 202 240 224 225 278 291 307 267 293 334 251 215 239 135 139 155 154
320 302 267 179 197 184 208 252 265 317 322 355 348 330 328 289 191 171 185 212 228 233 220 232 250 255 273 307 302 178 195 334 344 314 285 310 307 252 191 173 106 116 202 151 145
329 314 125 171 145 194 219 239 283 279 275 283 304 319 324 329 349 246 204 247 228 222 220 228 228 272 244 266 252 313 286 212 174 169 207 264 278 187 197 210 187 154 126 146 158
327 270 180 165 179 213 234 247 264 283 291 289 125 287 293 319 328 340 334 349 356 343 8 242 211 249 234 251 268 245 260 209 162 264 239 213 260 344 342 212 14 53 143 149 166
330 274 193 183 219 228 251 244 245 268 277 282 231 217 270 296 321 333 327 326 333 329 59 352 347 360 342 331 291 329 338 331 318 222 236 198 329 354 19 15 11 99 150 134 100
315 279 186 207 241 261 276 282 276 238 255 282 358 348 328 321 312 311 316 309 310 328 40 26 296 203 232 252 290 311 308 300 83 64 291 178 252 5 7 18 12 21 37 51 53
249 286 12 289 251 237 248 278 296 299 249 207 227 285 279 300 313 301 296 295 295 297 220 168 239 275 289 294 298 293 297 309 271 220 143 294 33 4 30 61 43 44 29 41 59
338 357 328 298 305 316 206 240 266 288 297 253 163 214 258 244 263 304 346 333 266 327 339 288 250 234 262 267 277 290 302 311 347 357 33 54 327 190 20 82 52 39 68 50 128
354 352 327 293 307 318 288 275 288 254 287 289 351 219 13 38 15 343 322 310 299 314 312 310 358 13 272 328 339 350 337 30 115 96 99 161 201 85 28 66 91 37 13 145 158
Wind_Speed_850mb
14 15 15 15 16 16 16 16 16 17 18 18 18 19 21 23 21 22 18 9 16 14 4 6 5 9 16 12 11 27 5 16 18 6 14 44 26 32 37 32 21 18 63 71 67
14 14 15 16 17 16 16 16 17 17 18 18 19 21 23 24 20 19 13 13 17 12 13 2 23 21 11 3 14 10 9 18 17 7 26 39 41 44 34 40 43 63 66 74 71
15 16 16 17 18 18 17 17 17 17 18 18 19 21 21 23 21 9 14 9 12 17 6 14 19 21 44 42 7 5 12 9 6 35 37 24 30 36 49 22 59 73 75 72 72
16 17 18 18 19 19 18 18 17 17 18 18 20 20 25 20 8 1 9 13 21 22 8 20 27 28 7 17 13 8 34 42 9 4 29 15 27 29 45 41 62 72 70 70 68
19 19 19 20 20 19 19 19 18 17 18 17 19 20 25 14 12 11 15 18 26 19 14 15 17 27 11 23 27 34 47 60 25 9 23 14 10 9 53 55 55 59 62 65 65
21 21 21 21 21 21 20 20 19 18 19 17 18 21 18 11 4 14 11 8 16 13 11 35 23 40 34 32 37 41 85 34 35 26 28 24 13 18 54 58 55 55 58 61 62
22 22 22 22 22 22 22 21 20 19 19 18 18 23 22 25 17 15 26 18 14 11 19 15 8 34 29 29 41 71 14 6 12 32 12 32 10 7 66 62 60 56 53 55 59
23 23 23 23 23 23 23 22 20 19 19 18 17 23 21 9 9 16 15 19 22 21 25 31 20 30 30 37 25 10 9 10 18 13 33 30 9 17 71 70 64 62 61 57 56
26 25 24 24 24 23 22 21 20 19 18 17 12 12 23 14 27 27 28 21 27 27 29 31 27 29 29 9 10 5 7 10 9 16 11 15 11 20 61 70 62 66 66 65 60
25 25 25 24 24 23 20 19 17 18 18 19 20 17 30 30 27 24 30 23 28 28 32 34 32 10 7 7 9 12 7 12 9 11 9 8 11 30 56 65 65 68 70 68 66
25 24 23 23 24 22 16 16 12 10 22 26 21 37 27 11 32 26 28 26 25 31 16 39 10 11 17 20 29 37 10 11 15 12 6 14 13 21 48 46 58 65 70 76 71
26 24 22 20 20 20 17 10 19 23 23 41 50 58 62 33 14 21 26 26 23 16 26 17 17 22 20 24 19 23 20 18 11 13 9 15 18 21 27 29 63 68 71 74 74
29 26 22 18 15 9 14 18 18 19 17 34 50 55 57 27 26 36 36 34 23 17 26 17 28 26 21 15 14 15 15 10 6 15 14 14 20 3 21 15 77 41 80 83 88
31 27 23 14 9 9 16 19 13 20 7 14 24 48 53 32 36 44 38 33 17 24 29 20 28 29 21 15 8 14 21 15 14 13 8 9 19 4 1 39 33 55 38 79 84
32 27 22 16 12 7 12 3 19 10 7 17 23 16 46 48 10 34 36 41 21 24 15 22 24 24 20 16 12 14 26 14 14 15 16 21 6 3 4 7 22 34 65 73 93
32 28 21 22 23 12 18 16 18 3 13 9 14 13 17 45 49 53 37 38 27 22 29 27 50 21 17 17 11 11 15 14 13 7 11 35 15 8 5 17 18 47 54 61 84
33 30 24 25 16 7 5 13 1 8 4 15 14 20 16 16 23 18 16 20 13 7 14 21 27 27 37 18 12 11 14 10 10 8 14 12 6 13 32 28 19 9 43 39 73
32 34 28 25 28 18 4 4 10 20 22 15 20 25 21 25 26 30 24 19 19 21 15 13 18 27 27 22 22 17 17 10 14 8 16 17 10 13 17 41 36 35 44 35 23
31 30 24 14 30 22 7 8 12 14 28 19 5 9 18 22 22 26 27 23 18 24 22 13 25 34 33 22 32 22 11 21 8 11 10 11 21 12 5 14 16 30 35 35 25
34 25 31 5 19 27 5 11 14 22 36 18 12 11 13 15 17 21 23 29 33 31 22 18 19 22 34 20 17 18 11 3 8 9 14 13 16 13 11 8 10 12 23 29 23
26 10 19 38 19 15 8 13 17 40 46 9 15 19 24 21 15 12 19 20 23 36 35 21 12 18 12 12 15 13 6 5 12 10 10 7 13 12 23 20 20 14 38 39 25
10 7 31 32 15 12 13 12 18 44 61 18 3 14 19 18 15 16 18 12 45 21 7 5 7 12 23 18 14 16 18 14 10 15 10 8 12 23 28 10 14 12 39 24 19
20 15 23 34 8 15 25 34 49 38 34 22 10 9 15 15 14 13 20 34 42 12 5 13 8 9 21 15 14 9 10 7 11 8 9 6 7 31 40 38 59 14 34 23 17
10 7 19 35 39 21 18 19 26 51 39 23 13 21 18 14 14 11 17 23 47 27 4 7 4 8 11 18 13 17 21 14 5 4 2 9 2 16 24 31 49 68 55 62 56
7 7 18 5 12 20 21 21 33 27 29 15 4 10 17 15 16 16 18 19 36 37 7 8 10 13 18 22 33 23 27 20 11 13 13 10 8 9 11 21 30 49 57 57 43
15 15 24 32 37 26 18 17 30 31 19 13 15 17 19 11 8 10 13 11 10 20 16 9 13 16 14 20 27 36 23 22 19 16 8 7 6 4 19 34 37 30 25 19 12
20 24 17 25 21 17 13 18 22 20 31 31 13 8 7 15 27 33 39 41 21 11 15 11 6 7 6 15 18 12 16 10 19 11 5 2 3 3 6 15 22 10 11 19 36
Wind_Direction_850mb
340 333 328 327 326 326 327 327 328 331 330 331 333 329 317 308 293 271 253 288 289 279 292 181 317 327 261 239 141 112 144 277 263 76 125 106 110 122 142 116 134 174 151 153 152
334 328 324 324 324 322 322 323 324 326 327 329 332 323 323 323 313 263 225 261 271 234 172 102 331 283 278 97 115 144 202 217 233 168 132 139 144 156 128 110 88 122 139 150 156
333 327 323 322 319 318 321 319 320 320 321 327 328 325 328 325 313 259 232 267 183 158 172 351 333 6 32 330 41 240 224 292 6 124 122 121 159 165 129 132 132 136 145 154 162
331 326 323 319 318 317 317 315 314 313 315 322 322 329 323 323 16 6 151 149 147 148 135 40 65 68 87 259 144 290 274 263 129 45 115 35 101 112 118 143 144 147 152 160 167
331 328 323 319 317 312 310 306 305 305 305 314 319 323 331 327 271 155 133 146 160 175 145 112 31 90 191 232 279 266 264 263 140 132 111 48 334 349 115 132 142 151 156 167 174
331 326 322 318 312 308 304 300 301 297 298 306 313 317 325 277 219 165 144 165 206 250 205 200 242 169 251 239 209 224 234 231 164 167 138 146 249 113 129 132 140 155 163 175 182
328 325 322 318 312 306 300 297 296 292 292 297 306 312 294 254 239 247 247 277 233 233 285 241 320 162 245 261 242 246 303 338 216 172 142 148 331 167 140 141 148 161 173 182 188
327 325 322 319 313 306 301 295 289 283 283 290 304 312 277 295 203 257 240 229 266 276 272 282 282 291 270 271 323 317 217 187 244 182 155 162 212 154 152 150 158 169 176 187 194
326 323 322 320 313 306 302 294 286 276 276 278 292 314 273 224 215 224 240 230 240 259 265 273 279 267 294 47 353 278 261 279 184 175 169 183 173 182 166 159 167 173 181 186 192
322 318 318 318 314 308 302 294 281 273 266 272 251 294 250 232 231 210 220 229 256 273 265 254 255 217 343 102 241 251 214 267 227 210 195 238 223 182 189 169 175 175 181 187 192
322 315 312 312 313 310 298 294 324 271 236 218 229 217 286 213 250 204 208 220 246 272 275 279 239 221 221 220 247 271 263 263 168 137 154 276 300 221 195 189 175 179 180 187 194
329 316 306 304 307 307 294 259 350 328 299 279 261 254 268 261 194 219 212 210 230 245 262 275 251 247 212 217 251 284 300 303 253 154 143 256 252 256 171 198 183 184 184 186 188
332 323 308 298 299 302 312 273 338 331 291 279 246 245 244 232 229 227 203 214 237 252 256 256 267 285 188 243 297 270 262 300 0 333 335 325 318 290 97 124 281 195 190 185 187
333 327 312 293 288 266 294 3 333 305 297 261 206 234 235 233 244 242 218 200 220 246 271 269 282 296 266 240 214 282 295 339 353 23 298 341 300 4 294 181 254 249 203 185 187
329 325 314 280 253 238 348 18 318 296 296 162 180 208 202 218 88 208 230 202 225 252 248 265 277 291 293 275 311 287 302 7 353 340 321 290 296 226 56 277 267 248 236 199 189
322 317 305 279 251 242 329 340 312 301 245 148 135 168 177 211 236 260 219 229 226 239 273 276 293 296 286 322 335 306 310 358 323 280 294 273 230 243 78 232 232 244 187 194 182
314 304 286 261 241 219 264 312 290 232 275 150 171 165 197 216 224 241 249 215 199 247 273 281 270 275 277 298 283 297 348 333 324 317 242 280 60 217 205 230 217 207 133 124 178
310 296 279 255 218 207 359 311 250 276 268 188 156 164 176 203 212 210 233 244 205 216 260 254 277 250 247 222 221 213 190 180 262 279 291 307 263 265 200 211 222 161 131 136 151
315 298 273 242 208 192 216 214 222 218 355 0 144 209 208 203 201 192 204 228 226 209 219 237 273 286 287 296 202 240 224 225 278 291 307 267 293 334 251 215 239 135 139 155 154
320 302 267 179 197 184 208 252 265 317 322 355 348 330 328 289 191 171 185 212 228 233 220 232 250 255 273 307 302 178 195 334 344 314 285 310 307 252 191 173 106 116 202 151 145
329 314 125 171 145 194 219 239 283 279 275 283 304 319 324 329 349 246 204 247 228 222 220 228 228 272 244 266 252 313 286 212 174 169 207 264 278 187 197 210 187 154 126 146 158
327 270 180 165 179 213 234 247 264 283 291 289 125 287 293 319 328 340 334 349 356 343 8 242 211 249 234 251 268 245 260 209 162 264 239 213 260 344 342 212 14 53 143 149 166
330 274 193 183 219 228 251 244 245 268 277 282 231 217 270 296 321 333 327 326 333 329 59 352 347 360 342 331 291 329 338 331 318 222 236 198 329 354 19 15 11 99 150 134 100
315 279 186 207 241 261 276 282 276 238 255 282 358 348 328 321 312 311 316 309 310 328 40 26 296 203 232 252 290 311 308 300 83 64 291 178 252 5 7 18 12 21 37 51 53
249 286 12 289 251 237 248 278 296 299 249 207 227 285 279 300 313 301 296 295 295 297 220 168 239 275 289 294 298 293 297 309 271 220 143 294 33 4 30 61 43 44 29 41 59
338 357 328 298 305 316 206 240 266 288 297 253 163 214 258 244 263 304 346 333 266 327 339 288 250 234 262 267 277 290 302 311 347 357 33 54 327 190 20 82 52 39 68 50 128
354 352 327 293 307 318 288 275 288 254 287 289 351 219 13 38 15 343 322 310 299 314 312 310 358 13 272 328 339 350 337 30 115 96 99 161 201 85 28 66 91 37 13 145 158